EHI
0 0 0 0 0 0 0 0 0 0 0 0 0 0 0 0 0 0 0 0 0 0 0 0 0 0 0 1 2 2 1 0 0 0 0 0 0 0 0 0 0 0 0 0
0 0 0 0 0 0 0 0 0 0 0 0 0 0 0 0 0 0 0 0 0 0 0 0 0 0 0 0 1 1 0 0 0 0 0 0 0 0 0 0 0 0 0 0
0 0 0 0 0 0 0 0 0 0 0 0 0 0 0 0 0 0 0 0 0 0 0 0 0 0 0 0 0 0 0 0 0 0 0 0 0 0 0 0 0 0 0 0
0 0 0 0 0 0 0 0 0 0 0 0 0 0 0 0 0 0 0 0 0 0 0 0 0 0 0 0 0 0 0 0 0 0 0 0 0 0 0 0 0 0 0 0
0 0 0 0 0 0 0 0 0 0 0 0 0 0 0 0 0 0 0 0 0 0 0 0 0 0 0 0 0 0 0 0 0 0 0 0 0 0 0 0 0 0 0 0
0 0 0 0 0 0 0 0 0 0 0 0 0 0 0 0 0 0 0 0 0 0 0 0 0 0 0 0 0 0 0 0 0 0 0 0 0 0 0 0 0 0 0 0
0 0 0 0 0 0 0 0 0 0 0 0 0 0 0 0 0 0 0 0 0 0 0 0 0 0 0 0 0 0 0 0 0 0 0 0 0 0 0 0 0 0 0 0
0 0 0 0 0 0 0 0 0 0 0 0 0 0 0 0 0 0 0 0 0 0 0 0 0 0 0 0 0 0 0 0 0 0 0 0 0 0 0 0 0 0 0 0
0 0 0 0 0 0 0 0 0 0 0 0 0 0 0 0 0 0 0 0 0 0 0 0 0 0 0 0 0 0 0 0 0 0 0 0 0 0 0 0 0 0 0 0
0 0 0 0 0 0 0 0 0 0 0 0 0 0 0 0 0 0 0 0 0 0 0 0 0 0 0 0 0 0 0 0 0 0 0 0 0 0 0 0 0 0 0 0
0 0 0 0 0 0 0 0 0 0 0 0 0 0 0 0 0 0 0 0 0 0 0 0 0 0 0 0 0 0 0 0 0 0 0 0 0 0 0 0 0 0 0 0
0 0 0 0 0 0 0 0 0 0 0 0 0 0 0 0 0 0 0 0 0 0 0 0 0 0 0 0 0 0 0 0 0 0 0 0 0 0 0 0 0 0 0 0
0 0 0 0 0 0 0 0 0 0 0 0 0 0 0 0 0 0 0 0 0 0 0 0 0 0 0 0 0 0 0 0 0 0 0 0 0 0 0 0 0 0 0 0
0 0 0 0 0 0 0 0 0 0 0 0 0 0 0 0 0 0 0 0 0 0 0 0 0 0 0 0 0 0 0 0 0 0 0 0 0 0 0 0 0 0 0 0
0 0 0 0 0 0 0 0 0 0 0 0 0 0 0 0 0 0 0 0 0 0 0 0 0 0 0 0 0 0 0 0 0 0 0 0 0 0 0 0 0 0 0 0
0 0 0 0 0 0 0 0 0 0 0 0 0 0 0 0 0 0 0 0 0 0 0 0 0 0 0 0 0 0 0 0 0 0 0 0 0 0 0 0 0 0 0 0
0 0 0 0 0 0 0 0 0 0 0 0 0 0 0 0 0 0 0 0 0 0 0 0 0 0 0 0 0 0 0 0 0 0 0 0 0 0 0 0 0 0 0 0
0 0 0 0 0 0 0 0 0 0 0 0 0 0 0 0 0 0 0 0 0 0 0 0 0 0 0 0 0 0 0 0 0 0 0 0 0 0 0 0 0 0 0 0
0 0 0 0 0 0 0 0 0 0 0 0 0 0 0 0 0 0 0 0 0 0 0 0 0 0 0 0 0 0 0 0 0 0 0 0 0 0 0 0 0 0 0 0
0 0 0 0 0 0 0 0 0 0 0 0 0 0 0 0 0 0 0 0 0 0 0 0 0 0 0 0 0 0 0 0 0 0 0 0 0 0 0 0 0 0 0 0
0 0 0 0 0 0 0 0 0 0 0 0 0 0 0 0 0 0 0 0 0 0 0 0 0 0 0 0 0 0 0 0 0 0 0 0 0 0 0 0 0 0 0 0
0 0 0 0 0 0 0 0 0 0 0 0 0 0 0 0 0 0 0 0 0 0 0 0 0 0 0 0 0 0 0 0 0 0 0 0 0 0 0 0 0 0 0 0
0 0 0 0 0 0 0 0 0 0 0 0 0 0 0 0 0 0 0 0 0 0 0 0 0 0 0 0 0 0 0 0 0 0 0 0 0 0 0 0 0 0 0 0
0 0 0 0 0 0 0 0 0 0 0 0 0 0 0 0 0 0 0 0 0 0 0 0 0 0 0 0 0 0 0 0 0 0 0 0 0 0 0 0 0 0 0 0
0 0 0 0 0 0 0 0 0 0 0 0 0 0 0 0 0 0 0 0 0 0 0 0 0 0 0 0 0 0 0 0 0 0 0 0 0 0 0 0 0 0 0 0
0 0 0 0 0 0 0 0 0 0 0 0 0 0 0 0 0 0 0 0 0 0 0 0 0 0 0 0 0 0 0 0 0 0 0 0 0 0 0 0 0 0 0 0
Wind_Speed
1 2 6 10 12 8 5 5 7 6 4 6 9 7 5 3 2 3 3 3 3 5 4 3 4 5 5 5 5 6 6 6 6 4 4 4 3 2 2 2 3 4 4 4
0 6 9 6 6 7 7 7 6 4 3 5 6 6 4 4 4 4 4 4 3 2 1 2 3 4 5 6 6 6 6 6 6 5 4 3 3 2 2 2 3 3 4 4
5 5 4 4 5 6 8 9 7 5 3 3 3 4 4 3 2 1 2 2 2 3 3 3 3 4 4 5 6 6 6 6 6 6 4 4 3 2 2 2 2 2 3 4
5 5 4 4 6 7 9 7 7 6 3 4 5 5 5 4 2 3 2 2 2 2 2 3 3 4 4 4 4 5 6 5 5 6 6 7 5 4 3 3 2 3 3 3
5 3 3 4 6 6 6 5 7 8 6 4 3 4 4 3 4 6 5 3 3 3 3 3 3 4 4 3 3 4 5 5 5 6 7 7 4 3 2 2 3 2 2 3
5 4 3 5 5 5 4 2 3 3 4 7 7 6 4 3 7 5 4 3 3 3 2 2 2 3 2 2 2 3 4 4 5 6 6 6 6 5 5 4 3 2 1 2
7 5 3 3 3 2 1 2 1 2 5 6 6 5 4 2 2 4 5 4 3 3 3 2 3 3 2 2 2 2 4 4 4 5 5 6 6 6 7 5 5 4 2 2
5 7 4 4 2 4 4 4 5 4 5 2 5 6 2 1 1 1 2 3 3 3 2 2 3 3 3 3 2 2 3 3 3 4 4 4 5 4 3 4 4 4 3 3
3 7 6 6 4 2 2 3 3 2 1 2 3 2 1 5 5 5 5 4 4 3 3 3 3 3 3 3 2 2 3 2 2 2 3 3 3 4 4 4 3 3 3 3
2 6 7 7 4 2 1 1 1 2 3 3 3 2 1 2 3 5 5 5 4 4 4 4 3 3 2 2 2 2 2 2 1 2 2 2 2 3 3 4 4 4 4 4
2 3 7 5 4 4 3 1 1 2 2 3 2 1 1 1 2 3 4 5 4 5 4 4 4 3 3 3 3 2 2 1 1 1 1 2 2 2 2 3 4 4 4 4
2 0 4 5 3 4 2 2 1 1 1 1 2 1 5 4 4 4 5 6 5 5 4 4 4 4 4 4 3 2 2 1 0 0 1 1 2 2 2 2 3 4 4 4
2 2 4 7 5 7 5 5 4 1 1 1 2 1 5 7 7 6 6 6 5 5 5 5 5 5 4 4 3 2 2 1 1 0 1 1 1 2 2 3 3 3 4 4
3 2 2 2 3 4 5 8 6 3 1 0 1 1 5 8 7 8 7 6 5 5 6 6 6 5 5 4 3 3 2 2 1 1 1 1 2 2 3 3 3 3 3 4
3 1 1 2 2 2 6 8 7 4 1 1 1 1 3 5 4 4 5 6 6 6 6 6 6 6 6 5 4 4 3 2 1 1 0 1 1 2 2 2 3 3 3 3
3 0 1 2 2 3 6 9 6 4 3 1 2 3 5 5 4 5 6 6 6 6 7 6 6 6 6 6 5 5 4 3 2 1 0 0 0 1 2 2 3 3 3 3
2 1 1 2 4 3 5 7 6 5 4 2 2 4 6 6 6 5 5 5 5 7 7 7 6 6 6 6 6 5 4 3 2 1 1 1 1 1 2 3 3 3 3 3
1 0 1 1 4 1 1 3 4 3 4 5 5 7 6 4 4 4 5 5 6 7 7 7 7 6 6 6 5 4 3 2 2 2 1 1 0 1 2 3 3 3 3 3
0 2 1 1 0 2 2 5 5 4 3 6 7 8 8 6 3 3 6 8 7 7 6 6 6 6 6 6 5 4 3 2 2 2 1 1 0 2 2 3 3 3 3 3
4 4 3 1 1 2 4 7 8 2 3 7 8 8 8 7 3 4 8 9 9 8 7 6 6 6 6 6 5 4 3 3 2 2 1 1 0 1 2 2 2 2 3 3
4 4 2 1 1 3 4 8 5 2 5 8 7 7 7 5 4 6 7 7 7 7 7 7 6 5 5 6 5 3 3 3 3 2 1 1 1 1 2 2 2 3 3 3
1 1 1 1 0 4 5 4 2 3 5 6 6 6 6 6 6 5 6 7 7 7 7 7 6 6 5 5 4 3 4 4 3 1 1 1 1 1 1 3 2 3 3 4
0 1 2 3 3 2 2 1 2 3 4 5 5 6 5 5 5 6 6 6 6 6 6 6 5 6 6 5 4 3 4 4 2 2 2 1 2 1 1 2 3 2 2 3
3 2 0 1 3 3 3 3 4 4 4 5 5 5 4 4 5 5 6 6 6 6 6 6 6 6 6 6 5 4 4 3 1 1 1 1 1 1 1 1 1 2 2 2
3 1 0 2 4 4 3 4 5 6 6 6 5 4 4 4 5 5 5 6 6 7 6 6 5 5 6 6 6 5 4 3 2 1 1 1 1 1 1 1 1 1 1 2
1 2 2 4 3 2 5 5 5 5 6 6 6 6 6 5 5 5 5 5 5 6 6 6 6 6 6 6 6 5 4 3 2 1 1 1 1 1 1 2 2 4 2 2
Wind_Direction
247 174 220 225 223 237 240 229 233 231 213 196 211 221 217 207 182 200 210 209 208 211 201 171 158 157 155 156 156 159 159 161 154 153 153 151 159 155 153 156 157 151 146 147
3 241 241 249 250 249 250 251 251 264 251 216 211 226 221 196 202 193 195 203 206 195 142 138 142 145 157 165 166 166 166 164 163 165 163 151 143 148 156 152 151 151 147 152
233 261 260 251 255 252 244 233 236 240 279 246 180 256 237 231 211 152 146 166 166 172 181 167 154 154 155 163 172 175 172 164 164 154 135 118 104 97 103 146 166 163 157 155
265 279 291 258 247 241 249 238 239 237 225 236 195 228 239 203 212 226 231 192 188 192 183 176 163 165 170 177 176 172 167 160 163 156 154 153 156 163 179 175 173 166 161 158
274 286 291 258 252 243 247 259 242 230 215 237 215 200 267 182 208 228 228 219 204 192 184 177 173 179 175 168 161 163 158 156 157 161 165 165 159 161 147 148 150 160 163 164
276 285 266 266 270 244 263 276 272 228 192 225 213 189 257 211 213 215 218 213 205 189 178 166 157 151 142 129 128 138 151 155 160 164 167 171 166 157 151 161 166 171 170 170
317 310 324 325 315 306 322 134 187 206 205 225 178 174 243 270 223 193 197 196 182 160 143 115 105 115 115 119 124 129 145 152 158 165 172 177 175 170 174 176 179 175 175 186
325 306 321 331 284 245 239 187 189 204 203 208 162 187 233 338 51 87 125 130 105 95 103 106 117 123 124 126 123 124 137 146 158 168 175 175 170 172 180 181 178 183 188 192
317 295 317 318 302 242 220 231 224 207 227 182 178 171 323 23 39 43 50 63 70 73 72 71 81 92 103 114 131 143 140 134 152 167 168 166 167 172 178 180 177 180 179 178
263 290 305 315 334 348 192 199 123 182 193 205 177 165 223 3 25 31 42 45 38 42 48 50 51 60 76 99 97 96 120 148 156 163 174 173 179 181 178 172 180 182 178 173
333 286 310 338 11 335 348 15 236 204 189 181 175 206 349 111 61 44 30 35 40 43 48 48 45 51 54 59 70 71 77 76 87 148 170 165 176 179 176 180 188 182 175 173
320 99 293 286 295 343 30 17 9 186 259 178 147 202 4 37 53 54 38 33 35 39 38 40 41 43 44 42 46 55 60 61 58 185 162 172 169 162 167 183 187 176 175 177
1 60 342 343 356 6 12 358 355 14 82 151 161 204 8 28 40 39 37 29 34 36 35 35 36 35 30 25 22 22 26 20 21 77 152 169 176 176 188 196 185 175 174 174
35 74 144 210 285 325 336 348 3 65 104 321 189 184 355 11 13 16 20 21 30 35 31 26 24 20 15 11 7 2 358 359 12 60 118 194 215 203 197 190 178 176 174 176
54 72 231 239 287 7 15 357 10 48 49 173 280 340 347 346 349 6 11 13 23 23 18 15 9 2 359 1 0 356 345 353 11 60 84 244 234 201 172 165 167 167 167 172
26 337 302 297 328 24 27 7 4 12 6 348 339 327 337 341 9 15 9 10 11 5 1 357 358 356 352 349 346 344 341 339 359 40 342 319 151 150 151 154 151 151 156 159
332 35 6 303 320 10 15 358 13 32 15 13 331 316 341 357 358 355 355 3 2 354 351 349 347 344 340 335 331 332 333 339 353 4 6 24 93 144 146 142 135 140 145 141
253 221 176 323 24 32 259 6 3 13 25 18 354 338 338 329 333 349 12 9 353 348 344 341 337 335 334 330 330 331 337 352 356 358 7 24 113 134 136 138 141 141 138 142
74 148 104 79 48 278 325 354 346 322 332 14 358 348 346 340 353 8 14 3 348 340 335 331 329 326 327 329 331 332 341 349 358 357 356 345 162 144 137 143 148 145 138 138
36 60 94 85 91 277 302 315 317 295 309 357 354 346 347 354 359 325 341 342 341 342 340 335 331 332 333 331 335 341 347 353 346 332 327 340 87 139 146 148 146 137 137 137
2 18 45 85 206 271 308 319 351 68 299 326 331 330 333 333 300 300 320 333 336 338 338 338 335 335 332 330 334 337 340 331 321 325 350 23 54 113 129 122 125 128 125 121
353 24 355 85 176 278 334 3 36 280 307 320 321 323 325 319 316 323 330 333 336 338 339 340 338 335 334 336 339 337 330 325 331 11 38 45 52 76 96 108 105 115 124 125
112 198 203 197 222 273 347 331 301 315 317 314 315 317 321 321 325 333 335 334 333 335 336 336 337 336 338 343 342 329 323 327 345 39 50 58 50 55 85 111 118 117 124 135
328 343 116 284 283 307 317 326 339 336 323 315 312 316 326 323 324 331 338 340 340 339 338 338 343 342 339 341 341 328 324 335 22 55 58 71 78 67 69 90 125 137 145 145
277 311 307 274 288 318 320 329 330 335 338 337 336 337 338 337 334 336 336 336 336 336 336 339 341 338 336 338 340 338 338 353 26 48 63 67 78 103 87 66 66 111 151 170
264 205 198 244 259 263 288 310 328 338 339 339 348 350 351 350 340 339 337 336 337 336 338 341 342 338 337 340 341 341 342 352 22 37 37 57 81 94 104 98 63 46 70 79